Regional Weather Roundup
Issued by NWS

Home | Current Version | Previous Version | Text Only | Print | Product List | Glossary On
Versions: 1 2 3 4 5 6 7 8 9 10 11 12 13 14 15 16 17 18 19 20 21 22 23 24 25 26 27 28 29 30 31 32 33 34 35 36 37 38 39 40 41 42 43 44 45 46 47 48 49 50
000
ASUS43 KLSX 301310
RWRMO

WEATHER SUMMARY FOR MISSOURI
NATIONAL WEATHER SERVICE SPRINGFIELD MO
800 AM CDT SUN APR 30 2017

NOTE: "FAIR" INDICATES FEW OR NO CLOUDS BELOW 12,000 FEET WITH NO
       SIGNIFICANT WEATHER AND/OR OBSTRUCTIONS TO VISIBILITY.
       CURRENT SKY AND/OR WEATHER CONDITIONS ARE NOT AVAILABLE FOR
       CHILLICOTHE AND FARMINGTON.

MOZ001>031-035>038-043-044-053-054-301400-
...NORTHERN AND WESTERN MISSOURI...

CITY           SKY/WX    TMP DP  RH WIND       PRES   REMARKS
KANSAS CTY INT FOG       44  43  96 NE20      29.59F VSB 1
KANSAS C DTWN  LGT RAIN N/A N/A N/A NE12      29.59F
LEE`S SUMMIT   LGT RAIN  46  46 100 NE17      29.56F
ST JOSEPH      RAIN      42  42 100 NE20      29.65R FOG
CHILLICOTHE      N/A     45  44  97 NE9       29.72R
KIRKSVILLE     CLOUDY    45  28  51 NE15      29.71R

$$
MOZ066>068-077>081-088>096-101>105-301400-
...SOUTHWEST MISSOURI...

CITY           SKY/WX    TMP DP  RH WIND       PRES   REMARKS
SPRINGFIELD    LGT RAIN  64  63  96 SE14      29.59R FOG
JOPLIN         PTSUNNY   59  58  96 SW13      29.52S
BRANSON        CLOUDY    63  63 100 SE7       29.63S

$$
MOZ032>034-039>042-045>050-055>058-069>072-301400-
...CENTRAL MISSOURI...

CITY           SKY/WX    TMP DP  RH WIND       PRES   REMARKS
COLUMBIA       LGT RAIN  56  56 100 SE8       29.65R
JEFFERSON CITY TSTM      59  56  89 SW5       29.65R
ROLLA          LGT RAIN  62  32  32 E15G21    29.65S
SEDALIA        CLOUDY    60  60 100 SE16      29.59F
WHITEMAN AFB   CLOUDY    55  55 100 N5        29.57S

$$
MOZ051-052-059>065-301400-
...EAST CENTRAL MISSOURI...

CITY           SKY/WX    TMP DP  RH WIND       PRES   REMARKS
ST LOUIS INTL  LGT RAIN  60  56  86 SE18G25   29.71F
SPIRIT OF STL  LGT RAIN  59  59 100 SE14G23   29.67F
ST CHARLES     CLOUDY    53  53 100 S6        29.72S

$$
MOZ072>076-082>087-097>100-106>115-301400-
...SOUTH CENTRAL AND SOUTHEAST MISSOURI...

CITY           SKY/WX    TMP DP  RH WIND       PRES   REMARKS
CAPE GIRARDEAU HVY RAIN  64  62  93 S8        29.80R FOG
FARMINGTON     HVY RAIN  62  61  96 SE6       29.78R
POPLAR BLUFF   RAIN      64  64 100 SE17G24   29.76S FOG

$$




USA.gov is the U.S. government's official web portal to all federal, state and local government web resources and services.